EW4502 Weather Reports


time (UTC)temp
F
wind
direction
speed
knots
gust
knots
rain 1hr
in
rain 24hr
in
rain mn
in
humidity
%
barometer
mb
20260507040022 47 333 0.0 0.0 0.00 0.66 0.00 94 1007.5
20260507034519 47 264 0.0 3.5 0.00 0.66 0.66 94 1007.8
20260507033017 47 333 0.9 4.3 0.01 0.66 0.66 94 1007.7
20260507031515 48 268 0.0 1.7 0.01 0.66 0.66 94 1007.5
20260507030014 48 328 0.0 0.0 0.07 0.66 0.66 94 1007.4
20260507024512 48 277 0.0 0.9 0.10 0.66 0.66 93 1007.4
20260507023008 49 355 0.0 1.7 0.09 0.65 0.65 93 1007.5
20260507021505 50 300 0.0 7.0 0.09 0.65 0.65 94 1007.2
20260507020002 52 360 0.0 7.0 0.04 0.59 0.59 94 1007.2
20260507014616 52 360 0.0 5.2 0.02 0.56 0.56 94 1006.7
20260507013057 53 360 0.0 4.3 0.07 0.56 0.56 94 1006.4
20260507011555 54 360 0.0 2.6 0.16 0.56 0.56 95 1006.1
20260507010108 54 360 0.0 0.0 0.18 0.55 0.55 95 1006.1
20260507004554 55 360 0.0 4.3 0.18 0.54 0.54 95 1005.7
20260507003052 56 360 0.0 5.2 0.14 0.49 0.49 95 1005.5
20260507001553 57 213 0.0 1.7 0.06 0.40 0.40 95 1005.0
20260507000051 57 139 0.0 6.1 0.03 0.37 0.37 95 1004.5
20260506234552 57 136 0.0 2.6 0.02 0.36 0.36 95 1004.2
20260506233053 57 179 0.0 2.6 0.02 0.35 0.35 95 1004.1
20260506231547 57 167 0.0 3.5 0.01 0.34 0.34 95 1003.8
20260506230046 57 130 0.0 5.2 0.02 0.34 0.34 95 1003.8
20260506224544 57 198 0.0 2.6 0.02 0.34 0.34 95 1004.0
20260506223043 57 188 0.0 2.6 0.01 0.33 0.33 95 1004.0
20260506221544 57 136 0.0 5.2 0.01 0.33 0.33 95 1004.0
20260506220043 58 196 0.0 3.5 0.00 0.32 0.32 94 1004.1
20260506214544 58 169 0.9 4.3 0.00 0.32 0.32 94 1004.0
20260506213040 58 162 0.0 5.2 0.00 0.32 0.32 94 1004.0
20260506211539 58 155 0.0 0.0 0.01 0.32 0.32 94 1003.9
20260506210038 58 165 0.0 6.1 0.01 0.32 0.32 94 1003.9
20260506204537 59 172 0.9 7.8 0.01 0.32 0.32 94 1004.0
20260506203037 59 179 0.0 4.3 0.03 0.32 0.32 94 1004.1
20260506201544 59 85 0.9 4.3 0.06 0.31 0.31 94 1004.2
20260506200032 59 61 0.0 0.0 0.10 0.31 0.31 95 1004.3
20260506194539 59 193 0.9 6.1 0.11 0.31 0.31 95 1004.6
20260506193033 59 134 0.0 0.0 0.10 0.28 0.28 95 1004.6
20260506191528 59 80 0.0 3.5 0.08 0.25 0.25 94 1004.7
20260506190027 59 175 0.0 3.5 0.06 0.21 0.21 94 1004.7
20260506184527 59 146 0.0 2.6 0.08 0.20 0.20 94 1004.8
20260506183024 59 187 0.0 3.5 0.10 0.19 0.19 94 1004.8
20260506181521 59 151 0.0 0.0 0.09 0.16 0.16 94 1005.0
20260506180020 59 120 0.0 0.0 0.10 0.14 0.14 94 1005.5
20260506174518 59 149 0.0 0.0 0.10 0.12 0.12 94 1005.8
20260506173018 59 124 0.0 0.0 0.08 0.09 0.09 93 1006.1
20260506171516 59 142 0.0 0.0 0.07 0.07 0.07 92 1006.3
20260506170016 60 107 0.0 0.0 0.04 0.04 0.04 92 1006.4
20260506164512 60 106 0.0 0.0 0.02 0.02 0.02 91 1006.1
20260506163022 60 11 0.0 0.0 0.01 0.01 0.01 90 1006.3
20260506161511 60 111 0.0 0.9 0.00 0.00 0.00 89 1006.4
20260506160013 61 164 0.0 0.0 0.00 0.00 0.00 88 1006.5
20260506154507 61 136 0.0 0.0 0.00 0.00 0.00 86 1006.8
20260506153005 62 202 0.0 0.9 0.00 0.00 0.00 83 1007.0
20260506151506 61 90 0.0 0.0 0.00 0.00 0.00 84 1007.1
20260506150006 61 192 0.0 0.0 0.00 0.00 0.00 84 1007.3
20260506144508 61 346 0.0 0.0 0.00 0.00 0.00 82 1007.5
20260506143013 62 96 0.0 0.0 0.00 0.00 0.00 82 1007.1
20260506141503 61 207 0.0 0.0 0.00 0.00 0.00 83 1007.2
20260506140003 61 167 0.0 0.0 0.00 0.00 0.00 85 1007.0
20260506134501 60 244 0.0 0.0 0.00 0.00 0.00 86 1006.9
20260506133104 59 140 0.0 0.0 0.00 0.00 0.00 87 1006.9
20260506131558 59 194 0.0 0.0 0.00 0.00 0.00 87 1007.2
20260506130156 58 156 0.0 0.0 0.00 0.00 0.00 88 1007.5
20260506124558 58 105 0.0 0.0 0.00 0.00 0.00 88 1007.8
20260506123053 58 167 0.0 0.0 0.00 0.00 0.00 88 1007.7
20260506121558 58 48 0.0 0.0 0.00 0.00 0.00 88 1007.6
20260506120107 57 115 0.0 0.9 0.00 0.00 0.00 88 1007.5
20260506114603 57 360 0.0 3.5 0.00 0.00 0.00 89 1007.4
20260506113048 56 360 0.0 5.2 0.00 0.00 0.00 89 1007.7
20260506111551 56 360 0.0 4.3 0.00 0.00 0.00 90 1007.7
20260506110045 55 360 0.0 0.9 0.00 0.00 0.00 90 1007.7
20260506104547 54 360 0.0 0.0 0.00 0.00 0.00 91 1007.7
20260506103042 54 360 0.0 0.0 0.00 0.00 0.00 90 1007.8
20260506101541 54 360 0.0 0.0 0.00 0.00 0.00 90 1007.6
20260506100040 54 360 0.0 0.0 0.00 0.00 0.00 89 1007.6
20260506094539 54 360 0.0 0.0 0.00 0.00 0.00 89 1007.4
20260506093055 54 360 0.0 0.0 0.00 0.00 0.00 87 1007.5
20260506091532 54 360 0.0 0.0 0.00 0.00 0.00 87 1007.6
20260506090028 55 360 0.0 0.0 0.00 0.00 0.00 86 1007.5
20260506084527 55 360 0.0 0.0 0.00 0.00 0.00 86 1007.6
20260506083023 55 360 0.0 0.0 0.00 0.00 0.00 84 1007.7
20260506081521 56 360 0.0 0.0 0.00 0.00 0.00 83 1007.8
20260506073015 58 360 0.0 0.9 0.00 0.00 0.00 80 1008.0
20260506071514 58 360 0.0 0.9 0.00 0.00 0.00 80 1008.1
20260506061510 58 360 0.0 0.0 0.00 0.00 0.00 77 1007.9
20260506044605 61 360 0.0 0.0 0.00 0.00 0.00 73 1008.3
20260506043054 61 360 0.0 0.0 0.00 0.00 0.00 73 1008.1
20260506041605 61 360 0.0 0.0 0.00 0.00 0.00 73 1008.1